Find Beidou DW 33

NORAD ID: 43581 Int'l Des: 2018-062 Owner: CNSA Country: CN Constellation: BeiDou operational
MEOCIRCULAR

現在のビュー

3D地球を読み込み中...

About Beidou DW 33

Beidou DW 33 (NORAD 43581) is a BeiDou constellation satellite launched Jul 29, 2018 by CNSA of CN. It operates in MEO, CIRCULAR orbit with a mass of 1014.00 kg.

Beidou DW 33について

説明を読み込み中...

次回通過

Passes for default location (London). Set your location on the main map for personalized predictions.

高度履歴

Loading altitude history...

軌道要素

1 43581U 18062A 26171.32881155 .00000068 00000-0 00000+0 0 9991
2 43581 54.0851 182.1963 0005659 290.1184 69.8429 1.86228559 53693
Epoch: Jun 20, 2026 • Age: 28 hours

現在のステータス

高度 21547.2 km
速度 3.78 km/s
衛星直下点 50.05°N, 149.05°E
打ち上げ日 Jul 29, 2018
運用期間 7.8 years
タイプ navigation

打ち上げグループ

Unknown Vehicle • BeiDou Launch 30 • 2 satellites

技術仕様

分類 Payload
質量 1014.00 kg
乾燥質量 850.00 kg
総質量 1014.00 kg
長さ 2.20 m
直径 1.70 m
スパン 10.00 m
形状 Box + 2 Pan
製造者 CAST
バスタイプ BD-3M
フェーズステータス In Orbit
所有者/国 CNSA/CN

Most Searched